Inquirer Daily News

Weather

Get conditions and forecasts for any City, State, ZIP code or Country:  
Northeast Philadelphia, PA
on Saturday, February 23, 2013

Saturday
Previous Day Next Day
Daily Summary
 ActualAverage (KTTN)Record (KTTN)
Temperature
Mean Temperature °F 36°F  
Max Temperature 46°F 44°F 74°F (1874)
Min Temperature 33°F 27°F 1°F (1868)
Degree Days
Heating Degree Days 26 29  
Month to date heating degree days 724  
Since 1 July heating degree days 3670  
Cooling Degree Days 0 0  
Month to date cooling degree days 0  
Year to date cooling degree days 0  
Moisture
Dew Point 40°F   
Average Humidity 96    
Maximum Humidity 100    
Minimum Humidity 93    
Precipitation
Precipitation 0.19 in 0.09 in 1.40 in (1998)
Month to date precipitation 1.84  
Year to date precipitation 5.00  
Wind
Wind Speed 6 mph   
Max Wind Speed 14 mph   
Max Gust Speed mph   
Visibility 3 miles   
Events Rain   

Key: T is trace of precipitation, MM is missing value
Source: NWS Daily Summary
Time(EST)TemperatureDew PointHumidity Pressure Visibility Wind DirectionWind SpeedGust SpeedPrecipitationEvents Conditions
12:50 AM 35.6°F 33.8°F 93% 30.27 in 4.0 miles NE 4.6 mph - N/A   Overcast
12:54 AM 34.0°F 33.1°F 96% 30.27 in 3.0 miles NE 4.6 mph - N/A   Overcast
1:05 AM 33.8°F 33.8°F 100% 30.26 in 2.5 miles NE 4.6 mph - N/A   Overcast
1:50 AM 33.8°F 33.8°F 100% 30.24 in 1.8 miles ENE 4.6 mph - 0.01 in   Overcast
1:54 AM 35.1°F 34.0°F 96% 30.24 in 2.0 miles ENE 4.6 mph - 0.01 in   Overcast
2:34 AM 35.6°F 33.8°F 93% 30.21 in 2.5 miles East 4.6 mph - N/A   Overcast
2:54 AM 35.1°F 34.0°F 96% 30.21 in 2.5 miles East 4.6 mph - N/A   Overcast
3:54 AM 36.0°F 35.1°F 97% 30.18 in 2.0 miles East 4.6 mph - 0.01 in   Overcast
4:40 AM 35.6°F 35.6°F 100% 30.16 in 1.8 miles East 4.6 mph - 0.01 in   Overcast
4:54 AM 36.0°F 36.0°F 100% 30.16 in 1.8 miles East 4.6 mph - 0.01 in   Overcast
5:15 AM 37.4°F 35.6°F 93% 30.15 in 2.0 miles East 5.8 mph - 0.01 in   Overcast
5:46 AM 37.4°F 35.6°F 93% 30.15 in 3.0 miles East 3.5 mph - 0.01 in   Overcast
5:54 AM 37.0°F 36.0°F 96% 30.15 in 3.0 miles East 4.6 mph - 0.01 in   Overcast
6:06 AM 37.4°F 35.6°F 93% 30.14 in 2.5 miles East 4.6 mph - N/A   Overcast
6:37 AM 37.4°F 35.6°F 93% 30.14 in 1.8 miles NE 4.6 mph - N/A   Overcast
6:54 AM 37.0°F 37.0°F 100% 30.13 in 2.0 miles ENE 4.6 mph - N/A   Overcast
7:18 AM 37.4°F 37.4°F 100% 30.13 in 1.5 miles East 5.8 mph - 0.01 in   Overcast
7:54 AM 39.0°F 37.9°F 96% 30.13 in 1.5 miles ENE 4.6 mph - 0.01 in   Overcast
8:54 AM 39.9°F 39.0°F 97% 30.10 in 2.0 miles East 5.8 mph - 0.01 in Rain Light Rain
9:31 AM 41.0°F 39.2°F 93% 30.08 in 1.5 miles East 5.8 mph - 0.00 in Rain Light Rain
9:54 AM 42.1°F 41.0°F 96% 30.08 in 2.0 miles East 3.5 mph - 0.01 in Rain Light Rain
10:08 AM 42.8°F 41.0°F 93% 30.07 in 1.5 miles ENE 4.6 mph - 0.00 in Rain Light Rain
10:28 AM 42.8°F 42.8°F 100% 30.06 in 2.0 miles ENE 5.8 mph - 0.01 in   Overcast
10:43 AM 42.8°F 42.8°F 100% 30.05 in 1.5 miles ENE 5.8 mph - 0.01 in   Overcast
10:54 AM 43.0°F 42.1°F 97% 30.05 in 1.8 miles ENE 5.8 mph - 0.01 in   Overcast
11:07 AM 42.8°F 42.8°F 100% 30.03 in 2.0 miles ENE 5.8 mph - 0.00 in   Overcast
11:15 AM 44.6°F 42.8°F 93% 30.03 in 1.5 miles East 5.8 mph - 0.00 in Rain Light Rain
11:54 AM 45.0°F 44.1°F 97% 30.03 in 2.0 miles East 4.6 mph - 0.02 in Rain Light Rain
12:05 PM 44.6°F 44.6°F 100% 30.02 in 1.8 miles ENE 4.6 mph - 0.01 in Rain Light Rain
12:13 PM 44.6°F 44.6°F 100% 30.01 in 1.8 miles East 4.6 mph - 0.01 in Rain Light Rain
12:25 PM 46.4°F 44.6°F 93% 30.00 in 2.0 miles East 5.8 mph - 0.02 in Rain Light Rain
12:54 PM 46.0°F 45.0°F 96% 29.98 in 3.0 miles East 9.2 mph - 0.02 in Rain Light Rain
1:54 PM 46.0°F 45.0°F 96% 29.96 in 4.0 miles NNE 9.2 mph - 0.01 in   Overcast
2:17 PM 46.4°F 44.6°F 93% 29.95 in 1.8 miles NNE 6.9 mph - 0.00 in Rain Light Rain
2:49 PM 46.4°F 46.4°F 100% 29.93 in 2.0 miles NE 8.1 mph - 0.03 in   Overcast
2:54 PM 46.9°F 46.0°F 97% 29.94 in 2.0 miles NE 9.2 mph - 0.03 in   Overcast
3:35 PM 46.4°F 44.6°F 93% 29.92 in 3.0 miles NNE 9.2 mph - 0.00 in Rain Light Rain
3:54 PM 46.0°F 45.0°F 96% 29.92 in 4.0 miles NNE 9.2 mph - 0.01 in Rain Light Rain
4:26 PM 46.4°F 44.6°F 93% 29.90 in 2.5 miles NNE 11.5 mph - 0.00 in   Overcast
4:54 PM 44.1°F 43.0°F 96% 29.90 in 2.0 miles NNE 10.4 mph - 0.00 in   Overcast
5:22 PM 44.6°F 42.8°F 93% 29.88 in 4.0 miles ENE 9.2 mph - N/A   Overcast
5:34 PM 44.6°F 42.8°F 93% 29.88 in 10.0 miles ENE 13.8 mph - N/A   Overcast
5:54 PM 44.1°F 43.0°F 96% 29.89 in 10.0 miles ENE 13.8 mph - N/A   Overcast
6:54 PM 43.0°F 41.0°F 93% 29.89 in 10.0 miles ENE 13.8 mph - 0.01 in Rain Light Rain
7:54 PM 41.0°F 39.0°F 93% 29.88 in 10.0 miles ENE 11.5 mph - 0.00 in   Overcast
8:54 PM 39.9°F 37.9°F 93% 29.87 in 10.0 miles NE 10.4 mph - N/A   Overcast
9:54 PM 39.9°F 37.9°F 93% 29.85 in 7.0 miles NE 10.4 mph - N/A   Overcast
10:54 PM 39.0°F 37.9°F 96% 29.83 in 3.0 miles NNE 10.4 mph - N/A   Overcast
11:10 PM 39.2°F 37.4°F 93% 29.82 in 2.5 miles NNE 12.7 mph - 0.01 in   Overcast
11:17 PM 37.4°F 37.4°F 100% 29.81 in 3.0 miles NNE 10.4 mph - 0.01 in   Overcast
11:54 PM 37.9°F 37.0°F 97% 29.83 in 8.0 miles NNE 10.4 mph - 0.01 in   Overcast
Astronomy
Sunrise:06:41 AM (EST) Moon Rise:03:53 PM (EST)2/23
Sunset:05:45 PM (EST) Moon Set:05:02 AM (EST)2/23
Moon Phase
Feb. 23 Feb. 25 Mar. 04 Mar. 11 Mar. 19

Copyright © 2014 The Weather Underground, Inc.